| time (UTC) | temp C | wind direction | speed KPH | gust KPH | rain 1hr cm | rain 24hr cm | rain mn cm | humidity % | barometer mb |
| 20260507020017 | 21 | 25 | 4.8 | 24.1 | 0.00 | 0.00 | 0.00 | 96 | 1012.5 |
| 20260507015517 | 21 | 349 | 4.8 | 11.3 | 0.00 | 0.00 | 0.00 | 96 | 1013.0 |
| 20260507015017 | 21 | 328 | 4.8 | 14.5 | 0.00 | 0.00 | 0.00 | 96 | 1012.7 |
| 20260507014518 | 22 | 27 | 9.7 | 9.7 | 0.00 | 0.00 | 0.00 | 96 | 1012.7 |
| 20260507014017 | 22 | 20 | 6.4 | 17.7 | 0.00 | 0.00 | 0.00 | 96 | 1012.5 |
| 20260507013517 | 22 | 3 | 6.4 | 4.8 | 0.00 | 0.00 | 0.00 | 97 | 1012.1 |
| 20260507013017 | 22 | 0 | 0.0 | 0.0 | 0.00 | 0.00 | 0.00 | 97 | 1011.8 |
| 20260507012518 | 22 | 0 | 0.0 | 0.0 | 0.00 | 0.00 | 0.00 | 97 | 1012.1 |
| 20260507012017 | 22 | 0 | 0.0 | 0.0 | 0.00 | 0.00 | 0.00 | 97 | 1011.8 |
| 20260507011518 | 22 | 0 | 0.0 | 0.0 | 0.00 | 0.00 | 0.00 | 97 | 1012.1 |
| 20260507011017 | 22 | 0 | 0.0 | 0.0 | 0.00 | 0.00 | 0.00 | 97 | 1011.5 |
| 20260507010517 | 22 | 23 | 0.0 | 0.0 | 0.00 | 0.00 | 0.00 | 97 | 1011.1 |
| 20260507010017 | 22 | 0 | 0.0 | 0.0 | 0.00 | 0.00 | 0.00 | 97 | 1011.5 |
| 20260507005517 | 22 | 233 | 0.0 | 0.0 | 0.00 | 0.00 | 0.00 | 96 | 1011.4 |
| 20260507005017 | 22 | 274 | 0.0 | 3.2 | 0.00 | 0.00 | 0.00 | 96 | 1011.8 |
| 20260507004517 | 22 | 0 | 1.6 | 0.0 | 0.00 | 0.00 | 0.00 | 96 | 1012.0 |
| 20260507004018 | 22 | 216 | 0.0 | 1.6 | 0.00 | 0.00 | 0.00 | 96 | 1012.1 |
| 20260507003517 | 22 | 232 | 0.0 | 1.6 | 0.00 | 0.00 | 0.00 | 96 | 1012.0 |
| 20260507003017 | 22 | 0 | 0.0 | 0.0 | 0.00 | 0.00 | 0.00 | 96 | 1011.7 |
| 20260507002517 | 22 | 215 | 0.0 | 1.6 | 0.00 | 0.00 | 0.00 | 96 | 1011.5 |
| 20260507002017 | 22 | 0 | 0.0 | 0.0 | 0.00 | 0.00 | 0.00 | 96 | 1011.5 |
| 20260507001517 | 22 | 196 | 0.0 | 8.0 | 0.00 | 0.00 | 0.00 | 96 | 1011.7 |
| 20260507001018 | 22 | 260 | 0.0 | 3.2 | 0.00 | 0.00 | 0.00 | 96 | 1011.8 |
| 20260507000517 | 23 | 359 | 0.0 | 0.0 | 0.00 | 0.00 | 0.00 | 96 | 1012.0 |
| 20260507000017 | 23 | 0 | 0.0 | 0.0 | 0.00 | 0.00 | 0.00 | 96 | 1011.6 |
| 20260506235518 | 22 | 284 | 0.0 | 3.2 | 0.00 | 0.00 | 0.00 | 96 | 1011.8 |
| 20260506235017 | 23 | 260 | 1.6 | 4.8 | 0.00 | 0.00 | 0.00 | 96 | 1011.7 |
| 20260506234518 | 22 | 0 | 0.0 | 0.0 | 0.00 | 0.00 | 0.00 | 96 | 1011.4 |
| 20260506234018 | 22 | 240 | 0.0 | 3.2 | 0.00 | 0.00 | 0.00 | 96 | 1011.7 |
| 20260506233517 | 23 | 275 | 1.6 | 3.2 | 0.00 | 0.00 | 0.00 | 96 | 1012.1 |
| 20260506233018 | 22 | 198 | 0.0 | 4.8 | 0.00 | 0.00 | 0.00 | 96 | 1012.0 |
| 20260506232517 | 22 | 236 | 1.6 | 4.8 | 0.00 | 0.00 | 0.00 | 96 | 1012.1 |
| 20260506232017 | 23 | 203 | 0.0 | 6.4 | 0.00 | 0.00 | 0.00 | 96 | 1012.4 |
| 20260506231517 | 22 | 198 | 3.2 | 9.7 | 0.00 | 0.00 | 0.00 | 96 | 1012.5 |
| 20260506231018 | 23 | 192 | 4.8 | 6.4 | 0.00 | 0.00 | 0.00 | 96 | 1012.5 |
| 20260506230517 | 22 | 226 | 0.0 | 4.8 | 0.00 | 0.00 | 0.00 | 96 | 1012.5 |
| 20260506230017 | 22 | 270 | 1.6 | 4.8 | 0.00 | 0.00 | 0.00 | 96 | 1012.6 |
| 20260506225517 | 22 | 189 | 1.6 | 6.4 | 0.00 | 0.00 | 0.00 | 96 | 1012.5 |
| 20260506225017 | 22 | 217 | 3.2 | 8.0 | 0.00 | 0.00 | 0.00 | 96 | 1012.4 |
| 20260506224517 | 22 | 222 | 0.0 | 1.6 | 0.00 | 0.00 | 0.00 | 96 | 1012.4 |
| 20260506224017 | 22 | 257 | 0.0 | 4.8 | 0.00 | 0.00 | 0.00 | 96 | 1012.3 |
| 20260506223517 | 22 | 196 | 1.6 | 9.7 | 0.00 | 0.00 | 0.00 | 96 | 1012.0 |
| 20260506223017 | 22 | 195 | 4.8 | 11.3 | 0.00 | 0.00 | 0.00 | 96 | 1012.1 |
| 20260506222518 | 22 | 212 | 3.2 | 6.4 | 0.00 | 0.00 | 0.00 | 96 | 1012.2 |
| 20260506222017 | 22 | 230 | 1.6 | 4.8 | 0.00 | 0.00 | 0.00 | 96 | 1012.2 |
| 20260506221517 | 22 | 186 | 1.6 | 11.3 | 0.00 | 0.00 | 0.00 | 96 | 1012.2 |
| 20260506221017 | 22 | 227 | 0.0 | 1.6 | 0.00 | 0.00 | 0.00 | 96 | 1012.3 |
| 20260506220518 | 22 | 215 | 0.0 | 6.4 | 0.00 | 0.00 | 0.00 | 96 | 1012.4 |
| 20260506220017 | 22 | 263 | 3.2 | 6.4 | 0.00 | 0.00 | 0.00 | 96 | 1012.4 |
| 20260506215517 | 22 | 237 | 3.2 | 4.8 | 0.00 | 0.00 | 0.00 | 96 | 1012.4 |
| 20260506215017 | 22 | 227 | 0.0 | 6.4 | 0.00 | 0.00 | 0.00 | 96 | 1012.4 |
| 20260506214517 | 22 | 196 | 4.8 | 11.3 | 0.00 | 0.00 | 0.00 | 96 | 1012.5 |
| 20260506214017 | 22 | 189 | 1.6 | 14.5 | 0.00 | 0.00 | 0.00 | 95 | 1012.5 |
| 20260506213517 | 22 | 200 | 1.6 | 11.3 | 0.00 | 0.00 | 0.00 | 95 | 1012.4 |
| 20260506213017 | 22 | 227 | 1.6 | 8.0 | 0.00 | 0.00 | 0.00 | 95 | 1012.4 |
| 20260506212517 | 22 | 198 | 3.2 | 4.8 | 0.00 | 0.00 | 0.00 | 95 | 1012.5 |
| 20260506212017 | 22 | 191 | 4.8 | 11.3 | 0.00 | 0.00 | 0.00 | 95 | 1012.6 |
| 20260506211517 | 22 | 196 | 4.8 | 11.3 | 0.00 | 0.00 | 0.00 | 94 | 1012.6 |
| 20260506211018 | 22 | 213 | 3.2 | 8.0 | 0.00 | 0.00 | 0.00 | 93 | 1012.6 |
| 20260506210517 | 23 | 189 | 6.4 | 9.7 | 0.00 | 0.00 | 0.00 | 93 | 1012.7 |
| 20260506210017 | 23 | 199 | 0.0 | 4.8 | 0.00 | 0.00 | 0.00 | 92 | 1012.8 |
| 20260506205517 | 23 | 198 | 0.0 | 8.0 | 0.00 | 0.00 | 0.00 | 91 | 1012.8 |
| 20260506205017 | 23 | 203 | 4.8 | 9.7 | 0.00 | 0.00 | 0.00 | 90 | 1012.9 |
| 20260506204517 | 23 | 299 | 6.4 | 4.8 | 0.00 | 0.00 | 0.00 | 88 | 1012.8 |
| 20260506204017 | 23 | 261 | 0.0 | 4.8 | 0.00 | 0.00 | 0.00 | 86 | 1012.7 |
| 20260506203517 | 23 | 271 | 4.8 | 4.8 | 0.00 | 0.00 | 0.00 | 85 | 1012.7 |
| 20260506203017 | 24 | 227 | 3.2 | 6.4 | 0.00 | 0.00 | 0.00 | 83 | 1012.8 |
| 20260506202518 | 24 | 195 | 3.2 | 6.4 | 0.00 | 0.00 | 0.00 | 81 | 1012.9 |
| 20260506202017 | 24 | 226 | 4.8 | 9.7 | 0.00 | 0.00 | 0.00 | 80 | 1012.9 |
| 20260506201523 | 25 | 208 | 1.6 | 6.4 | 0.00 | 0.00 | 0.00 | 80 | 1013.0 |
| 20260506201017 | 25 | 193 | 1.6 | 12.9 | 0.00 | 0.00 | 0.00 | 80 | 1013.0 |
| 20260506200517 | 25 | 196 | 6.4 | 11.3 | 0.00 | 0.00 | 0.00 | 79 | 1013.1 |
| 20260506200017 | 25 | 206 | 3.2 | 12.9 | 0.00 | 0.00 | 0.00 | 78 | 1013.1 |
| 20260506195518 | 25 | 258 | 1.6 | 9.7 | 0.00 | 0.00 | 0.00 | 78 | 1013.2 |
| 20260506195017 | 25 | 200 | 3.2 | 8.0 | 0.00 | 0.00 | 0.00 | 77 | 1013.4 |
| 20260506194517 | 25 | 251 | 3.2 | 8.0 | 0.00 | 0.00 | 0.00 | 77 | 1013.5 |
| 20260506194017 | 25 | 188 | 6.4 | 16.1 | 0.00 | 0.00 | 0.00 | 78 | 1013.6 |
| 20260506193517 | 25 | 254 | 4.8 | 9.7 | 0.00 | 0.00 | 0.00 | 78 | 1013.7 |
| 20260506193018 | 25 | 189 | 1.6 | 6.4 | 0.00 | 0.00 | 0.00 | 78 | 1013.8 |
| 20260506192517 | 25 | 193 | 4.8 | 11.3 | 0.00 | 0.00 | 0.00 | 78 | 1014.0 |
| 20260506192018 | 25 | 243 | 3.2 | 9.7 | 0.00 | 0.00 | 0.00 | 78 | 1014.0 |
| 20260506191518 | 25 | 236 | 0.0 | 8.0 | 0.00 | 0.00 | 0.00 | 78 | 1014.0 |
| 20260506191018 | 25 | 208 | 4.8 | 11.3 | 0.00 | 0.00 | 0.00 | 77 | 1014.0 |
| 20260506190518 | 25 | 206 | 4.8 | 12.9 | 0.00 | 0.00 | 0.00 | 77 | 1014.1 |
| 20260506190018 | 25 | 203 | 8.0 | 11.3 | 0.00 | 0.00 | 0.00 | 76 | 1014.1 |
| 20260506185517 | 25 | 257 | 1.6 | 8.0 | 0.00 | 0.00 | 0.00 | 77 | 1014.1 |
| 20260506185017 | 25 | 198 | 4.8 | 6.4 | 0.00 | 0.00 | 0.00 | 77 | 1014.2 |
| 20260506184517 | 25 | 191 | 4.8 | 6.4 | 0.00 | 0.00 | 0.00 | 77 | 1014.2 |
| 20260506184017 | 25 | 233 | 3.2 | 4.8 | 0.00 | 0.00 | 0.00 | 77 | 1014.2 |
| 20260506183517 | 25 | 257 | 3.2 | 4.8 | 0.00 | 0.00 | 0.00 | 77 | 1014.2 |
| 20260506183017 | 25 | 191 | 1.6 | 8.0 | 0.00 | 0.00 | 0.00 | 77 | 1014.2 |
| 20260506182517 | 24 | 186 | 4.8 | 9.7 | 0.00 | 0.00 | 0.00 | 77 | 1014.4 |
| 20260506182017 | 25 | 200 | 4.8 | 14.5 | 0.00 | 0.00 | 0.00 | 77 | 1014.5 |
| 20260506181518 | 25 | 188 | 4.8 | 16.1 | 0.00 | 0.00 | 0.00 | 76 | 1014.3 |
| 20260506181017 | 25 | 199 | 8.0 | 12.9 | 0.00 | 0.00 | 0.00 | 76 | 1014.4 |
| 20260506180517 | 25 | 193 | 6.4 | 14.5 | 0.00 | 0.00 | 0.00 | 75 | 1014.3 |
| 20260506180017 | 25 | 203 | 8.0 | 19.3 | 0.00 | 0.00 | 0.00 | 74 | 1014.4 |
| 20260506175517 | 25 | 216 | 1.6 | 11.3 | 0.00 | 0.00 | 0.00 | 75 | 1014.4 |
| 20260506175017 | 25 | 202 | 3.2 | 11.3 | 0.00 | 0.00 | 0.00 | 75 | 1014.5 |
| 20260506174517 | 25 | 195 | 6.4 | 17.7 | 0.00 | 0.00 | 0.00 | 74 | 1014.4 |
| 20260506174017 | 25 | 191 | 6.4 | 17.7 | 0.00 | 0.00 | 0.00 | 74 | 1014.6 |
| 20260506173517 | 25 | 299 | 9.7 | 14.5 | 0.00 | 0.00 | 0.00 | 74 | 1014.4 |
| 20260506173018 | 25 | 203 | 4.8 | 12.9 | 0.00 | 0.00 | 0.00 | 73 | 1014.6 |
| 20260506172517 | 25 | 215 | 8.0 | 12.9 | 0.00 | 0.00 | 0.00 | 73 | 1014.7 |
| 20260506172018 | 25 | 191 | 4.8 | 19.3 | 0.00 | 0.00 | 0.00 | 72 | 1014.7 |
| 20260506171517 | 25 | 202 | 4.8 | 16.1 | 0.00 | 0.00 | 0.00 | 71 | 1014.6 |
| 20260506171017 | 25 | 184 | 3.2 | 17.7 | 0.00 | 0.00 | 0.00 | 72 | 1014.6 |
| 20260506170518 | 25 | 202 | 8.0 | 14.5 | 0.00 | 0.00 | 0.00 | 71 | 1014.6 |
| 20260506170018 | 25 | 193 | 12.9 | 25.7 | 0.00 | 0.00 | 0.00 | 71 | 1014.5 |
| 20260506165518 | 25 | 200 | 9.7 | 17.7 | 0.00 | 0.00 | 0.00 | 72 | 1014.6 |
| 20260506165018 | 25 | 236 | 4.8 | 12.9 | 0.00 | 0.00 | 0.00 | 72 | 1014.5 |
| 20260506164518 | 25 | 189 | 8.0 | 16.1 | 0.00 | 0.00 | 0.00 | 72 | 1014.7 |
| 20260506164018 | 25 | 254 | 4.8 | 11.3 | 0.00 | 0.00 | 0.00 | 72 | 1014.7 |
| 20260506163518 | 25 | 195 | 9.7 | 16.1 | 0.00 | 0.00 | 0.00 | 73 | 1014.7 |
| 20260506163018 | 25 | 192 | 9.7 | 11.3 | 0.00 | 0.00 | 0.00 | 72 | 1014.7 |
| 20260506162518 | 25 | 203 | 4.8 | 24.1 | 0.00 | 0.00 | 0.00 | 71 | 1014.6 |
| 20260506162018 | 25 | 193 | 4.8 | 19.3 | 0.00 | 0.00 | 0.00 | 72 | 1014.7 |
| 20260506161518 | 25 | 181 | 4.8 | 12.9 | 0.00 | 0.00 | 0.00 | 72 | 1014.6 |
| 20260506161018 | 25 | 203 | 11.3 | 16.1 | 0.00 | 0.00 | 0.00 | 72 | 1014.7 |
| 20260506160518 | 25 | 278 | 8.0 | 9.7 | 0.00 | 0.00 | 0.00 | 72 | 1014.7 |
| 20260506160017 | 25 | 202 | 9.7 | 12.9 | 0.00 | 0.00 | 0.00 | 73 | 1014.5 |
| 20260506155518 | 25 | 193 | 4.8 | 12.9 | 0.00 | 0.00 | 0.00 | 73 | 1014.7 |
| 20260506155017 | 25 | 261 | 4.8 | 11.3 | 0.00 | 0.00 | 0.00 | 74 | 1014.8 |
| 20260506154517 | 24 | 253 | 8.0 | 11.3 | 0.00 | 0.00 | 0.00 | 75 | 1014.7 |
| 20260506154017 | 24 | 215 | 4.8 | 11.3 | 0.00 | 0.00 | 0.00 | 75 | 1014.8 |
| 20260506153517 | 24 | 236 | 4.8 | 9.7 | 0.00 | 0.00 | 0.00 | 76 | 1014.8 |
| 20260506153017 | 23 | 196 | 3.2 | 11.3 | 0.00 | 0.00 | 0.00 | 76 | 1014.8 |
| 20260506152517 | 23 | 208 | 3.2 | 12.9 | 0.00 | 0.00 | 0.00 | 78 | 1014.9 |
| 20260506152017 | 23 | 179 | 9.7 | 8.0 | 0.00 | 0.00 | 0.00 | 79 | 1015.0 |
| 20260506151517 | 23 | 292 | 3.2 | 8.0 | 0.00 | 0.00 | 0.00 | 78 | 1014.9 |
| 20260506151018 | 23 | 199 | 4.8 | 16.1 | 0.00 | 0.00 | 0.00 | 78 | 1015.0 |
| 20260506150517 | 23 | 185 | 9.7 | 12.9 | 0.00 | 0.00 | 0.00 | 78 | 1015.1 |
| 20260506150017 | 23 | 215 | 6.4 | 6.4 | 0.00 | 0.00 | 0.00 | 80 | 1015.1 |
| 20260506145517 | 22 | 189 | 3.2 | 12.9 | 0.00 | 0.00 | 0.00 | 79 | 1015.1 |
| 20260506145017 | 22 | 196 | 6.4 | 16.1 | 0.00 | 0.00 | 0.00 | 79 | 1015.3 |
| 20260506144517 | 22 | 226 | 6.4 | 12.9 | 0.00 | 0.00 | 0.00 | 79 | 1015.3 |
| 20260506144017 | 22 | 202 | 6.4 | 8.0 | 0.00 | 0.00 | 0.00 | 81 | 1015.2 |
| 20260506143517 | 22 | 213 | 4.8 | 12.9 | 0.00 | 0.00 | 0.00 | 81 | 1015.2 |
| 20260506143017 | 22 | 199 | 4.8 | 16.1 | 0.00 | 0.00 | 0.00 | 82 | 1015.1 |
| 20260506142518 | 22 | 196 | 6.4 | 14.5 | 0.00 | 0.00 | 0.00 | 82 | 1015.1 |
| 20260506142018 | 22 | 186 | 6.4 | 14.5 | 0.00 | 0.00 | 0.00 | 82 | 1015.1 |
| 20260506141518 | 22 | 202 | 4.8 | 17.7 | 0.00 | 0.00 | 0.00 | 83 | 1015.0 |
| 20260506141018 | 22 | 215 | 4.8 | 11.3 | 0.00 | 0.00 | 0.00 | 83 | 1015.1 |
| 20260506140518 | 21 | 301 | 3.2 | 8.0 | 0.00 | 0.00 | 0.00 | 84 | 1015.1 |
| 20260506140018 | 21 | 227 | 3.2 | 11.3 | 0.00 | 0.00 | 0.00 | 84 | 1015.1 |
| 20260506135518 | 21 | 198 | 4.8 | 8.0 | 0.00 | 0.00 | 0.00 | 84 | 1015.1 |
| 20260506135017 | 21 | 199 | 3.2 | 11.3 | 0.00 | 0.00 | 0.00 | 85 | 1015.2 |
| 20260506134517 | 21 | 268 | 11.3 | 9.7 | 0.00 | 0.00 | 0.00 | 86 | 1015.3 |
| 20260506134017 | 21 | 188 | 4.8 | 17.7 | 0.00 | 0.00 | 0.00 | 86 | 1015.3 |
| 20260506133517 | 21 | 195 | 4.8 | 14.5 | 0.00 | 0.00 | 0.00 | 86 | 1015.3 |
| 20260506133017 | 21 | 257 | 1.6 | 9.7 | 0.00 | 0.00 | 0.00 | 87 | 1015.3 |
| 20260506132517 | 21 | 193 | 3.2 | 9.7 | 0.00 | 0.00 | 0.00 | 87 | 1015.4 |
| 20260506132017 | 21 | 188 | 0.0 | 6.4 | 0.00 | 0.00 | 0.00 | 87 | 1015.4 |
| 20260506131517 | 21 | 196 | 1.6 | 11.3 | 0.00 | 0.00 | 0.00 | 87 | 1015.4 |
| 20260506131017 | 20 | 215 | 0.0 | 11.3 | 0.00 | 0.00 | 0.00 | 88 | 1015.5 |
| 20260506130517 | 20 | 127 | 1.6 | 8.0 | 0.00 | 0.00 | 0.00 | 88 | 1015.5 |
| 20260506130017 | 20 | 192 | 4.8 | 6.4 | 0.00 | 0.00 | 0.00 | 88 | 1015.5 |
| 20260506125518 | 20 | 202 | 0.0 | 9.7 | 0.00 | 0.00 | 0.00 | 88 | 1015.3 |
| 20260506125017 | 20 | 217 | 3.2 | 8.0 | 0.00 | 0.00 | 0.00 | 89 | 1015.3 |
| 20260506124516 | 20 | 184 | 3.2 | 12.9 | 0.00 | 0.00 | 0.00 | 89 | 1015.4 |
| 20260506124017 | 20 | 205 | 4.8 | 8.0 | 0.00 | 0.00 | 0.00 | 88 | 1015.3 |
| 20260506123517 | 20 | 302 | 6.4 | 9.7 | 0.00 | 0.00 | 0.00 | 89 | 1015.4 |
| 20260506123017 | 20 | 215 | 4.8 | 11.3 | 0.00 | 0.00 | 0.00 | 89 | 1015.2 |
| 20260506122517 | 20 | 215 | 4.8 | 11.3 | 0.00 | 0.00 | 0.00 | 88 | 1015.3 |
| 20260506122017 | 20 | 181 | 4.8 | 12.9 | 0.00 | 0.00 | 0.00 | 89 | 1015.2 |
| 20260506121517 | 20 | 195 | 4.8 | 12.9 | 0.00 | 0.00 | 0.00 | 88 | 1015.0 |
| 20260506121017 | 20 | 206 | 3.2 | 6.4 | 0.00 | 0.00 | 0.00 | 88 | 1014.9 |
| 20260506120517 | 20 | 196 | 6.4 | 11.3 | 0.00 | 0.00 | 0.00 | 88 | 1014.7 |
| 20260506120018 | 20 | 186 | 3.2 | 8.0 | 0.00 | 0.00 | 0.00 | 88 | 1014.7 |
| 20260506115517 | 20 | 226 | 3.2 | 8.0 | 0.00 | 0.00 | 0.00 | 88 | 1014.5 |
| 20260506115017 | 20 | 217 | 3.2 | 8.0 | 0.00 | 0.00 | 0.00 | 88 | 1014.4 |
| 20260506114517 | 20 | 199 | 4.8 | 9.7 | 0.00 | 0.00 | 0.00 | 87 | 1014.5 |
| 20260506114018 | 20 | 223 | 0.0 | 8.0 | 0.00 | 0.00 | 0.00 | 87 | 1014.4 |
| 20260506113517 | 20 | 219 | 3.2 | 6.4 | 0.00 | 0.00 | 0.00 | 87 | 1014.5 |
| 20260506113017 | 20 | 240 | 3.2 | 6.4 | 0.00 | 0.00 | 0.00 | 87 | 1014.2 |
| 20260506112517 | 20 | 240 | 1.6 | 8.0 | 0.00 | 0.00 | 0.00 | 87 | 1014.0 |
| 20260506112017 | 20 | 203 | 3.2 | 8.0 | 0.00 | 0.00 | 0.00 | 87 | 1014.0 |
| 20260506111518 | 20 | 195 | 4.8 | 8.0 | 0.00 | 0.00 | 0.00 | 87 | 1014.0 |
| 20260506111017 | 20 | 217 | 3.2 | 4.8 | 0.00 | 0.00 | 0.00 | 86 | 1013.8 |
| 20260506110517 | 20 | 196 | 1.6 | 9.7 | 0.00 | 0.00 | 0.00 | 86 | 1013.8 |
| 20260506110017 | 20 | 193 | 4.8 | 8.0 | 0.00 | 0.00 | 0.00 | 86 | 1013.8 |
| 20260506105517 | 20 | 198 | 3.2 | 8.0 | 0.00 | 0.00 | 0.00 | 86 | 1013.9 |
| 20260506105017 | 20 | 191 | 3.2 | 6.4 | 0.00 | 0.00 | 0.00 | 86 | 1013.8 |
| 20260506104517 | 20 | 196 | 4.8 | 9.7 | 0.00 | 0.00 | 0.00 | 86 | 1013.8 |
| 20260506104017 | 20 | 217 | 3.2 | 6.4 | 0.00 | 0.00 | 0.00 | 86 | 1013.8 |
| 20260506103517 | 20 | 220 | 4.8 | 9.7 | 0.00 | 0.00 | 0.00 | 86 | 1013.7 |
| 20260506103017 | 20 | 222 | 3.2 | 8.0 | 0.00 | 0.00 | 0.00 | 85 | 1013.6 |
| 20260506102517 | 20 | 246 | 4.8 | 8.0 | 0.00 | 0.00 | 0.00 | 85 | 1013.5 |
| 20260506102017 | 20 | 195 | 3.2 | 8.0 | 0.00 | 0.00 | 0.00 | 85 | 1013.4 |
| 20260506101517 | 20 | 184 | 3.2 | 8.0 | 0.00 | 0.00 | 0.00 | 85 | 1013.4 |
| 20260506101017 | 20 | 188 | 1.6 | 8.0 | 0.00 | 0.00 | 0.00 | 85 | 1013.4 |
| 20260506100517 | 20 | 198 | 6.4 | 8.0 | 0.00 | 0.00 | 0.00 | 85 | 1013.2 |
| 20260506100017 | 20 | 236 | 3.2 | 6.4 | 0.00 | 0.00 | 0.00 | 84 | 1013.1 |
| 20260506095517 | 20 | 192 | 3.2 | 8.0 | 0.00 | 0.00 | 0.00 | 84 | 1013.2 |
| 20260506095017 | 20 | 227 | 4.8 | 6.4 | 0.00 | 0.00 | 0.00 | 84 | 1013.1 |
| 20260506094517 | 20 | 199 | 1.6 | 8.0 | 0.00 | 0.00 | 0.00 | 84 | 1013.0 |
| 20260506094018 | 20 | 191 | 4.8 | 6.4 | 0.00 | 0.00 | 0.00 | 84 | 1013.1 |
| 20260506093517 | 20 | 182 | 1.6 | 9.7 | 0.00 | 0.00 | 0.00 | 84 | 1012.9 |
| 20260506093017 | 20 | 198 | 4.8 | 6.4 | 0.00 | 0.00 | 0.00 | 83 | 1012.9 |
| 20260506092517 | 20 | 193 | 0.0 | 4.8 | 0.00 | 0.00 | 0.00 | 83 | 1012.8 |
| 20260506092018 | 20 | 195 | 3.2 | 6.4 | 0.00 | 0.00 | 0.00 | 83 | 1012.8 |
| 20260506091518 | 20 | 230 | 1.6 | 4.8 | 0.00 | 0.00 | 0.00 | 83 | 1012.8 |
| 20260506091017 | 20 | 193 | 0.0 | 9.7 | 0.00 | 0.00 | 0.00 | 83 | 1012.8 |
| 20260506090518 | 20 | 224 | 4.8 | 6.4 | 0.00 | 0.00 | 0.00 | 83 | 1012.8 |
| 20260506090017 | 20 | 236 | 1.6 | 9.7 | 0.00 | 0.00 | 0.00 | 82 | 1012.8 |
| 20260506085517 | 20 | 253 | 8.0 | 11.3 | 0.00 | 0.00 | 0.00 | 82 | 1012.5 |
| 20260506085017 | 20 | 203 | 4.8 | 8.0 | 0.00 | 0.00 | 0.00 | 82 | 1012.5 |
| 20260506084517 | 20 | 205 | 3.2 | 9.7 | 0.00 | 0.00 | 0.00 | 82 | 1012.5 |
| 20260506084017 | 20 | 254 | 4.8 | 11.3 | 0.00 | 0.00 | 0.00 | 81 | 1012.5 |
| 20260506083517 | 20 | 219 | 3.2 | 8.0 | 0.00 | 0.00 | 0.00 | 81 | 1012.5 |
| 20260506083017 | 20 | 246 | 4.8 | 8.0 | 0.00 | 0.00 | 0.00 | 81 | 1012.5 |
| 20260506082517 | 20 | 217 | 3.2 | 9.7 | 0.00 | 0.00 | 0.00 | 81 | 1012.5 |
| 20260506082018 | 20 | 199 | 6.4 | 11.3 | 0.00 | 0.00 | 0.00 | 81 | 1012.5 |
| 20260506081517 | 20 | 191 | 4.8 | 8.0 | 0.00 | 0.00 | 0.00 | 80 | 1012.6 |
| 20260506081018 | 20 | 241 | 3.2 | 9.7 | 0.00 | 0.00 | 0.00 | 80 | 1012.6 |
| 20260506080517 | 20 | 229 | 4.8 | 8.0 | 0.00 | 0.00 | 0.00 | 80 | 1012.6 |
| 20260506073517 | 21 | 205 | 0.0 | 11.3 | 0.00 | 0.00 | 0.00 | 77 | 1012.7 |
| 20260506073017 | 21 | 230 | 6.4 | 8.0 | 0.00 | 0.00 | 0.00 | 77 | 1012.6 |
| 20260506072517 | 21 | 208 | 4.8 | 8.0 | 0.00 | 0.00 | 0.00 | 77 | 1012.6 |
| 20260506072017 | 21 | 199 | 6.4 | 6.4 | 0.00 | 0.00 | 0.00 | 77 | 1012.6 |
| 20260506071518 | 21 | 234 | 4.8 | 6.4 | 0.00 | 0.00 | 0.00 | 76 | 1012.7 |
| 20260506071017 | 21 | 258 | 3.2 | 9.7 | 0.00 | 0.00 | 0.00 | 76 | 1012.6 |
| 20260506070518 | 21 | 188 | 8.0 | 8.0 | 0.00 | 0.00 | 0.00 | 76 | 1012.8 |
| 20260506062517 | 21 | 188 | 3.2 | 9.7 | 0.00 | 0.00 | 0.00 | 74 | 1013.0 |
| 20260506062017 | 21 | 212 | 4.8 | 9.7 | 0.00 | 0.00 | 0.00 | 74 | 1013.1 |
| 20260506061517 | 21 | 202 | 6.4 | 4.8 | 0.00 | 0.00 | 0.00 | 73 | 1013.2 |
| 20260506061017 | 21 | 272 | 3.2 | 9.7 | 0.00 | 0.00 | 0.00 | 73 | 1013.3 |
| 20260506060517 | 21 | 203 | 3.2 | 9.7 | 0.00 | 0.00 | 0.00 | 73 | 1013.3 |
| 20260506051017 | 21 | 203 | 4.8 | 11.3 | 0.00 | 0.00 | 0.00 | 71 | 1013.3 |
| 20260506050517 | 22 | 200 | 4.8 | 11.3 | 0.00 | 0.00 | 0.00 | 71 | 1013.2 |
| 20260506045017 | 22 | 200 | 3.2 | 11.3 | 0.00 | 0.00 | 0.00 | 71 | 1013.3 |
| 20260506044517 | 22 | 200 | 4.8 | 9.7 | 0.00 | 0.00 | 0.00 | 70 | 1013.2 |
| 20260506044017 | 22 | 184 | 3.2 | 12.9 | 0.00 | 0.00 | 0.00 | 70 | 1013.1 |
| 20260506043517 | 22 | 199 | 11.3 | 9.7 | 0.00 | 0.00 | 0.00 | 70 | 1013.1 |
| 20260506043017 | 22 | 229 | 6.4 | 12.9 | 0.00 | 0.00 | 0.00 | 70 | 1013.0 |
| 20260506042517 | 22 | 264 | 4.8 | 8.0 | 0.00 | 0.00 | 0.00 | 69 | 1012.9 |
| 20260506042017 | 22 | 189 | 3.2 | 16.1 | 0.00 | 0.00 | 0.00 | 69 | 1013.0 |
| 20260506041517 | 22 | 195 | 4.8 | 12.9 | 0.00 | 0.00 | 0.00 | 69 | 1013.1 |
| 20260506041017 | 22 | 178 | 4.8 | 12.9 | 0.00 | 0.00 | 0.00 | 69 | 1013.2 |
| 20260506040517 | 22 | 199 | 3.2 | 11.3 | 0.00 | 0.00 | 0.00 | 69 | 1013.1 |
| 20260506040017 | 22 | 224 | 1.6 | 11.3 | 0.00 | 0.00 | 0.00 | 69 | 1013.1 |
| 20260506035518 | 22 | 189 | 4.8 | 16.1 | 0.00 | 0.00 | 0.00 | 68 | 1013.2 |
| 20260506035017 | 22 | 186 | 3.2 | 11.3 | 0.00 | 0.00 | 0.00 | 68 | 1013.2 |
| 20260506034517 | 22 | 199 | 3.2 | 14.5 | 0.00 | 0.00 | 0.00 | 68 | 1013.1 |
| 20260506034017 | 22 | 217 | 3.2 | 8.0 | 0.00 | 0.00 | 0.00 | 67 | 1013.1 |
| 20260506033517 | 22 | 191 | 3.2 | 8.0 | 0.00 | 0.00 | 0.00 | 67 | 1013.0 |
| 20260506033017 | 22 | 258 | 1.6 | 8.0 | 0.00 | 0.00 | 0.00 | 68 | 1013.1 |
| 20260506032517 | 22 | 229 | 4.8 | 6.4 | 0.00 | 0.00 | 0.00 | 68 | 1013.4 |
| 20260506032017 | 22 | 251 | 3.2 | 9.7 | 0.00 | 0.00 | 0.00 | 68 | 1013.3 |
| 20260506031523 | 21 | 0 | 0.0 | 0.0 | 0.00 | 0.00 | 0.00 | 68 | 1013.2 |
| 20260506031017 | 21 | 0 | 0.0 | 0.0 | 0.00 | 0.00 | 0.00 | 69 | 1012.9 |
| 20260506030517 | 21 | 0 | 0.0 | 0.0 | 0.00 | 0.00 | 0.00 | 68 | 1012.8 |
| 20260506030017 | 21 | 0 | 0.0 | 0.0 | 0.00 | 0.00 | 0.00 | 68 | 1012.7 |
| 20260506025517 | 21 | 0 | 0.0 | 0.0 | 0.00 | 0.00 | 0.00 | 67 | 1012.6 |
| 20260506025017 | 21 | 0 | 0.0 | 0.0 | 0.00 | 0.00 | 0.00 | 67 | 1012.6 |
| 20260506024517 | 21 | 0 | 0.0 | 0.0 | 0.00 | 0.00 | 0.00 | 66 | 1012.7 |
| 20260506024018 | 21 | 0 | 0.0 | 0.0 | 0.00 | 0.00 | 0.00 | 66 | 1012.7 |
| 20260506023517 | 21 | 0 | 0.0 | 0.0 | 0.00 | 0.00 | 0.00 | 66 | 1012.7 |
| 20260506023017 | 21 | 0 | 0.0 | 0.0 | 0.00 | 0.00 | 0.00 | 65 | 1012.7 |
| 20260506022517 | 22 | 0 | 0.0 | 0.0 | 0.00 | 0.00 | 0.00 | 65 | 1012.6 |
| 20260506022017 | 22 | 0 | 0.0 | 0.0 | 0.00 | 0.00 | 0.00 | 65 | 1012.6 |
| 20260506021517 | 22 | 0 | 0.0 | 0.0 | 0.00 | 0.00 | 0.00 | 65 | 1012.5 |
| 20260506021018 | 22 | 0 | 0.0 | 0.0 | 0.00 | 0.00 | 0.00 | 65 | 1012.5 |
| 20260506020517 | 22 | 0 | 0.0 | 0.0 | 0.00 | 0.00 | 0.00 | 65 | 1012.6 |